STARLINK-34701, 64953

Orbit data source: Space-Track

STARLINK-34701, 64953 is a payload satellite owned by SpaceX/Seattle (US) in SSO that was launched on Sat, 26 Jul 2025 UTC via an FALCON 9 launch vehicle from the Air Force Western Test Range (AFWTR). Payload-class satellites include a variety of spacecraft equipped with specific instruments for various scientific and technological missions. These include communications satellites like Starlink; space stations such as the ISS; scientific satellites like the Hubble; Earth observation satellites from companies like Planet Labs, Umbra, and HawkEye 360; GPS; miniature CubeSats for education and research; and military/defense satellites.

Loading next visibility...
Identifier
64953, 2025-158X
Orbit
SSO
Country
Flag of USUS
Related business
Manufacturer
SpaceX/Seattle
Mission
Operational Commercial Communications
Bus & Motor
STARLINK V2MO, Unknown motor
Mass
575 kg wet, ~530 kg dry
Launch date (UTC)
2025-07-26 (11 months ago)
Launch vehicle
FALCON 9
Launch site
Air Force Western Test Range (AFWTR)
Object type
Payload
Rocket body
Debris
Shape & HBR
Box + 2 Pan, 17.7 m
Radar Cross Section
36.964 m², Large (>1 m²)

Expand to show TLE details & history
Last TLE update: 16 hours ago

TLE from 16 hours ago
0 STARLINK-34701
1 64953U 25158X   26171.19412954  .00010283  00000-0  71557-3 0  9992
2 64953  97.3403  34.0888 0002149  92.3056 267.8417 15.05652454 50789
Epoch: 2026-06-20T04:39Z
TLE epoch observation values (Epoch: 2026-06-20T04:39:32.792Z)
Latitude
-0.00007°
Longitude
55.78992°
Altitude
552.633 km
Speed
7.585 km/s
True Right ascension
02h 16m 21s
True Declination
0° 00' 00"
Sunlit
Object was in daylight at epoch
Visualization orbit readout
Latitude
Unknown
Longitude
Unknown
Altitude
Unknown
Speed
Unknown
Apparent Right ascension
Unknown
Apparent Declination
Unknown
Sunlit
N/A
Visualization observer readout
Local Sidereal Time
07:15:00
Azimuth
Unknown
Elevation
Unknown
Doppler factor
Unknown
Orbital elements
Apogee altitude
547.974 km
Perigee altitude
544.998 km
Semi-major axis
6,924.623 km
Eccentricity
0.00021
Inclination
97.3403°
RAAN
34.0888°
Arg. of periapsis
92.3056°
True anomaly
267.81709°
Mean anomaly
267.8417°
Eccentric anomaly
267.8294°
Mean motion
3.7666 °/min
Orbital period
95.58 mins
BSTAR
0.00071557
Loading maneuver chart data...
Computing Atmospheric mass density...
Loading historical data...
Loading historical data...
Loading historical data...
Loading historical data...
Loading historical data...
Loading historical data...
Loading historical data...

Documentation

Showing up to 5 results
|